Location: Firdgum
(53.2488°N, 5.5615°E)
Time: 02:49:34
(UTC+00:00)

Cosmos 2219 - Pass Details

Date: 08 December 2019
Orbit: 834 x 859 km, 71.1° (Epoch: 28 January)

Event Time Altitude Azimuth Distance (km) Brightness Sun altitude
Exits shadow 04:27:21 37° 356° (N) 1,276 4.0 -27.2°
Drops below altitude 10° 04:31:09 10° 26° (NNE) 2,457 5.9 -26.6°
Sets 04:33:42 0° 32° (NNE) 3,395 6.7 -26.2°
